Terminal Aerodrome Forecast
Issued by NWS Anchorage, AK

Home | Current Version | Previous Version | Text Only | Print | Product List | Glossary On
Versions: 1 2 3 4 5 6 7 8 9 10 11 12 13 14 15 16 17 18 19 20 21 22 23 24 25 26 27 28 29 30 31 32 33 34 35 36 37 38 39 40 41 42 43 44 45 46 47 48 49 50
000
FTAK31 PANC 251725
TAFANC
TAF
PANC 251725Z 2518/2624 VRB03KT 1SM BR BKN002
      TEMPO 2518/2521 1/2SM FZFG VV001
     FM252100 VRB04KT P6SM FEW002
     FM260800 VRB03KT 3SM -SN OVC025
     FM261000 VRB04KT 1SM -SN BR VV012
     FM261500 17007KT 5SM -SN SCT012 BKN020=

USA.gov is the U.S. government's official web portal to all federal, state and local government web resources and services.